Weather History for Gustavus, AK

Change the Weather History Date:

Wednesday, February 20, 2013

  Actual Average Record
Temperature  
Mean Temperature 38 °F -  
Max Temperature 39 °F 35 °F 48 °F (1998)
Min Temperature 37 °F 21 °F -16 °F (1965)
Degree Days  
Heating Degree Days 27    
Moisture  
Dew Point 30 °F    
Average Humidity 72    
Maximum Humidity 81    
Minimum Humidity 65    
Precipitation  
Precipitation 0.00 in - - ()
Sea Level Pressure  
Sea Level Pressure 29.36 in    
Wind  
Wind Speed 15 mph (SE)    
Max Wind Speed 28 mph    
Max Gust Speed 32 mph    
Visibility 10 miles    
Events      
Averages and records for this station are not official NWS values.
T = Trace of Precipitation, MM = Missing Value Source: NWS Daily Summary

Daily Weather History Graph

Daily Weather History Graph

Search for Another Location

Airport:

Trip Planner

Search our weather history database for the weather conditions in past years. The results will help you decide how hot, cold, wet, or windy it might be!

Date:

Astronomy

Feb. 20, 2013 Rise Set
Actual Time 7:21 AM AKST 5:12 PM AKST
Civil Twilight 6:40 AM AKST 5:53 PM AKST
Nautical Twilight 5:54 AM AKST 6:39 PM AKST
Astronomical Twilight 5:08 AM AKST 7:25 PM AKST
Moon 11:57 AM AKST (2/20) 4:31 AM AKST (2/20)
Length of Visible Light 11h 13m
Length of Day
9h 51m
Waxing Gibbous, 77% of the Moon is Illuminated
Feb 20
Waxing Gibbous
Feb 25
Full
Mar 4
Last Quarter
Mar 11
New
Mar 19
First Quarter

Hourly Weather History & Observations

Time (AKST) Temp. Windchill Dew Point Humidity Pressure Visibility Wind Dir Wind Speed Gust Speed Precip Events Conditions
12:16 AM 39.2 °F 32.5 °F 30.2 °F 70% 29.53 in 10.0 mi SSE 10.4 mph 16.1 mph N/A   Overcast
12:36 AM 39.2 °F 31.6 °F 30.2 °F 70% 29.52 in 10.0 mi SSE 12.7 mph - N/A   Overcast
12:56 AM - - - N/A% 29.51 in 8.0 mi SE 15.0 mph 25.3 mph N/A   Overcast
1:16 AM 37.4 °F 29.3 °F 30.2 °F 75% 29.50 in 10.0 mi SE 12.7 mph - N/A   Overcast
1:36 AM 37.4 °F 28.9 °F 30.2 °F 75% 29.49 in 10.0 mi SE 13.8 mph - N/A   Overcast
1:56 AM 37.4 °F 30.3 °F 30.2 °F 75% 29.48 in 10.0 mi SE 10.4 mph - N/A   Overcast
2:16 AM 37.4 °F 28.9 °F 30.2 °F 75% 29.47 in 10.0 mi SE 13.8 mph 26.5 mph N/A   Overcast
2:36 AM 39.2 °F 30.2 °F 30.2 °F 70% 29.45 in 10.0 mi SE 17.3 mph 26.5 mph N/A   Overcast
2:56 AM 39.2 °F 31.6 °F 30.2 °F 70% 29.44 in 10.0 mi SE 12.7 mph - N/A   Overcast
3:16 AM 39.2 °F 30.8 °F 30.2 °F 70% 29.42 in 10.0 mi SE 15.0 mph 20.7 mph N/A   Overcast
3:36 AM 39.2 °F 29.8 °F 30.2 °F 70% 29.42 in 10.0 mi SE 18.4 mph 26.5 mph N/A   Overcast
3:56 AM 39.2 °F 28.7 °F 30.2 °F 70% 29.41 in 10.0 mi SE 23.0 mph 26.5 mph N/A   Overcast
4:16 AM 39.2 °F 30.2 °F 30.2 °F 70% 29.40 in 10.0 mi SE 17.3 mph - N/A   Overcast
4:36 AM 39.2 °F 30.8 °F 30.2 °F 70% 29.39 in 10.0 mi SE 15.0 mph 25.3 mph N/A   Overcast
4:56 AM 39.2 °F 28.7 °F 30.2 °F 70% 29.38 in 10.0 mi SE 23.0 mph 29.9 mph N/A   Scattered Clouds
5:16 AM 39.2 °F 30.2 °F 30.2 °F 70% 29.38 in 10.0 mi SE 17.3 mph 26.5 mph N/A   Partly Cloudy
5:36 AM 39.2 °F 29.6 °F 30.2 °F 70% 29.37 in 10.0 mi SE 19.6 mph 27.6 mph N/A   Mostly Cloudy
5:56 AM 39.2 °F 29.6 °F 30.2 °F 70% 29.37 in 10.0 mi SE 19.6 mph 28.8 mph N/A   Mostly Cloudy
6:16 AM 39.2 °F 30.2 °F 30.2 °F 70% 29.37 in 10.0 mi SE 17.3 mph 28.8 mph N/A   Mostly Cloudy
6:36 AM 39.2 °F 29.0 °F 30.2 °F 70% 29.38 in 10.0 mi SE 21.9 mph 29.9 mph N/A   Overcast
6:56 AM 39.2 °F 30.2 °F 30.2 °F 70% 29.39 in 10.0 mi SSE 17.3 mph 27.6 mph N/A   Overcast
7:16 AM 37.4 °F 28.9 °F 30.2 °F 75% 29.39 in 10.0 mi SE 13.8 mph - N/A   Overcast
7:36 AM 37.4 °F 29.3 °F 30.2 °F 75% 29.39 in 10.0 mi SE 12.7 mph 18.4 mph N/A   Overcast
7:56 AM 37.4 °F 29.3 °F 32.0 °F 81% 29.39 in 10.0 mi SE 12.7 mph - N/A   Overcast
8:16 AM 37.4 °F 29.3 °F 30.2 °F 75% 29.39 in 10.0 mi SE 12.7 mph - N/A   Mostly Cloudy
8:36 AM 37.4 °F 28.9 °F 30.2 °F 75% 29.39 in 10.0 mi SE 13.8 mph - N/A   Mostly Cloudy
8:56 AM 37.4 °F 29.8 °F 30.2 °F 75% 29.39 in 10.0 mi SE 11.5 mph - N/A   Overcast
9:16 AM 39.2 °F 30.5 °F 32.0 °F 75% 29.39 in 10.0 mi SE 16.1 mph - N/A   Mostly Cloudy
9:36 AM 39.2 °F 31.6 °F 32.0 °F 75% 29.39 in 10.0 mi ESE 12.7 mph - N/A   Scattered Clouds
9:56 AM 39.2 °F 31.6 °F 32.0 °F 75% 29.38 in 10.0 mi SE 12.7 mph 18.4 mph N/A   Mostly Cloudy
10:16 AM 39.2 °F 30.2 °F 30.2 °F 70% 29.38 in 10.0 mi SE 17.3 mph - N/A   Mostly Cloudy
10:36 AM 39.2 °F 29.8 °F 30.2 °F 70% 29.38 in 10.0 mi SE 18.4 mph 26.5 mph N/A   Mostly Cloudy
10:56 AM 39.2 °F 29.6 °F 32.0 °F 75% 29.37 in 10.0 mi SE 19.6 mph 25.3 mph N/A   Overcast
11:16 AM 39.2 °F 29.3 °F 30.2 °F 70% 29.36 in 10.0 mi SE 20.7 mph 24.2 mph N/A   Overcast
11:36 AM 39.2 °F 29.0 °F 30.2 °F 70% 29.36 in 10.0 mi SE 21.9 mph 27.6 mph N/A   Overcast
11:56 AM 39.2 °F 27.8 °F 30.2 °F 70% 29.35 in 10.0 mi SE 27.6 mph 32.2 mph N/A   Overcast
12:16 PM 39.2 °F 29.6 °F 32.0 °F 75% 29.36 in 10.0 mi SE 19.6 mph 27.6 mph N/A   Overcast
12:36 PM 39.2 °F 28.7 °F 32.0 °F 75% 29.36 in 10.0 mi SE 23.0 mph 28.8 mph N/A   Overcast
12:56 PM 39.2 °F 29.6 °F 32.0 °F 75% 29.35 in 10.0 mi SE 19.6 mph 26.5 mph N/A   Mostly Cloudy
1:16 PM 39.2 °F 30.5 °F 32.0 °F 75% 29.35 in 10.0 mi SE 16.1 mph 25.3 mph N/A   Overcast
1:36 PM 39.2 °F 29.8 °F 32.0 °F 75% 29.35 in 10.0 mi SE 18.4 mph - N/A   Overcast
1:56 PM 39.2 °F 29.8 °F 32.0 °F 75% 29.35 in 10.0 mi SE 18.4 mph - N/A   Mostly Cloudy
2:16 PM 39.2 °F 30.2 °F 32.0 °F 75% 29.34 in 10.0 mi SE 17.3 mph - N/A   Overcast
2:36 PM 37.4 °F 29.3 °F 32.0 °F 81% 29.34 in 10.0 mi SE 12.7 mph 19.6 mph N/A   Mostly Cloudy
2:56 PM 39.2 °F 30.8 °F 32.0 °F 75% 29.34 in 10.0 mi SE 15.0 mph - N/A   Mostly Cloudy
3:16 PM 37.4 °F 28.5 °F 32.0 °F 81% 29.34 in 10.0 mi SSE 15.0 mph 19.6 mph N/A   Mostly Cloudy
3:36 PM 37.4 °F 28.5 °F 32.0 °F 81% 29.34 in 10.0 mi SE 15.0 mph - N/A   Overcast
3:56 PM 37.4 °F 28.5 °F 32.0 °F 81% 29.33 in 10.0 mi ESE 15.0 mph - N/A   Mostly Cloudy
4:16 PM 37.4 °F 28.2 °F 32.0 °F 81% 29.33 in 10.0 mi SE 16.1 mph 20.7 mph N/A   Mostly Cloudy
4:36 PM 39.2 °F 30.8 °F 32.0 °F 75% 29.33 in 10.0 mi SE 15.0 mph 20.7 mph N/A   Overcast
4:56 PM 37.4 °F 29.3 °F 30.2 °F 75% 29.33 in 10.0 mi SE 12.7 mph - N/A   Mostly Cloudy
5:16 PM 37.4 °F 29.8 °F 30.2 °F 75% 29.32 in 10.0 mi SSE 11.5 mph 18.4 mph N/A   Overcast
5:36 PM 39.2 °F 31.2 °F 30.2 °F 70% 29.32 in 10.0 mi SE 13.8 mph - N/A   Overcast
5:56 PM 37.4 °F 29.8 °F 30.2 °F 75% 29.31 in 10.0 mi SE 11.5 mph - N/A   Mostly Cloudy
6:16 PM 37.4 °F 29.8 °F 30.2 °F 75% 29.31 in 10.0 mi SE 11.5 mph - N/A   Mostly Cloudy
6:36 PM 37.4 °F 28.9 °F 30.2 °F 75% 29.31 in 10.0 mi SE 13.8 mph 23.0 mph N/A   Overcast
6:56 PM 37.4 °F 29.3 °F 32.0 °F 81% 29.30 in 10.0 mi SE 12.7 mph 17.3 mph N/A   Mostly Cloudy
7:16 PM 37.4 °F 28.5 °F 30.2 °F 75% 29.30 in 10.0 mi SE 15.0 mph 21.9 mph N/A   Partly Cloudy
7:36 PM 39.2 °F 29.8 °F 30.2 °F 70% 29.29 in 10.0 mi SE 18.4 mph 25.3 mph N/A   Partly Cloudy
7:56 PM 39.2 °F 30.2 °F 30.2 °F 70% 29.29 in 10.0 mi SE 17.3 mph 23.0 mph N/A   Mostly Cloudy
8:16 PM 39.2 °F 30.8 °F 28.4 °F 65% 29.29 in 10.0 mi SE 15.0 mph 18.4 mph N/A   Overcast
8:36 PM 39.2 °F 32.5 °F 28.4 °F 65% 29.28 in 10.0 mi SE 10.4 mph 18.4 mph N/A   Overcast
8:56 PM 39.2 °F 33.0 °F 28.4 °F 65% 29.28 in 10.0 mi SE 9.2 mph - N/A   Overcast
9:16 PM 39.2 °F 33.6 °F 28.4 °F 65% 29.28 in 10.0 mi SSE 8.1 mph - N/A   Overcast
9:36 PM 39.2 °F 31.2 °F 28.4 °F 65% 29.27 in 10.0 mi SE 13.8 mph 20.7 mph N/A   Overcast
9:56 PM 39.2 °F 30.8 °F 28.4 °F 65% 29.27 in 10.0 mi SE 15.0 mph 19.6 mph N/A   Overcast
10:16 PM 39.2 °F 30.5 °F 28.4 °F 65% 29.27 in 10.0 mi SE 16.1 mph 21.9 mph N/A   Overcast
10:36 PM 39.2 °F 32.0 °F 28.4 °F 65% 29.27 in 10.0 mi SSE 11.5 mph 18.4 mph N/A   Overcast
10:56 PM 39.2 °F 30.8 °F 28.4 °F 65% 29.27 in 10.0 mi SE 15.0 mph 19.6 mph N/A   Overcast
11:16 PM 39.2 °F 31.2 °F 28.4 °F 65% 29.27 in 10.0 mi SE 13.8 mph - N/A   Overcast
11:36 PM 39.2 °F 31.6 °F 28.4 °F 65% 29.27 in 10.0 mi SE 12.7 mph - N/A   Overcast
11:56 PM 39.2 °F 32.5 °F 28.4 °F 65% 29.27 in 10.0 mi SE 10.4 mph - N/A   Overcast